Time,TemperatureF,DewpointF,PressureIn,WindDirection,WindDirectionDegrees,WindSpeedMPH,WindSpeedGustMPH,Humidity,HourlyPrecipIn,Conditions,Clouds,dailyrainin,SolarRadiationWatts/m^2,SoftwareType,DateUTC
2013-09-20 00:07:00,-999.0,-99.9,30.25,South,184,0.0,-999.0,-999,-99.99,,,0.00,0,weatherlink.com 1.10,2013-09-20 04:07:00,
2013-09-20 00:22:00,-999.0,-99.9,30.25,South,184,0.0,-999.0,-999,-99.99,,,0.00,0,weatherlink.com 1.10,2013-09-20 04:22:00,
2013-09-20 00:37:00,-999.0,-99.9,30.25,South,184,0.0,-999.0,-999,-99.99,,,0.00,0,weatherlink.com 1.10,2013-09-20 04:37:00,
2013-09-20 00:52:00,-999.0,-99.9,30.25,South,184,0.0,-999.0,-999,-99.99,,,0.00,0,weatherlink.com 1.10,2013-09-20 04:52:00,
2013-09-20 01:07:00,-999.0,-99.9,30.25,South,184,0.0,-999.0,-999,-99.99,,,0.00,0,weatherlink.com 1.10,2013-09-20 05:07:00,
2013-09-20 01:22:00,-999.0,-99.9,30.25,South,184,0.0,-999.0,-999,-99.99,,,0.00,0,weatherlink.com 1.10,2013-09-20 05:22:00,
2013-09-20 01:37:00,-999.0,-99.9,30.25,South,184,0.0,-999.0,-999,-99.99,,,0.00,0,weatherlink.com 1.10,2013-09-20 05:37:00,
2013-09-20 01:52:00,-999.0,-99.9,30.25,South,184,0.0,-999.0,-999,-99.99,,,0.00,0,weatherlink.com 1.10,2013-09-20 05:52:00,
2013-09-20 02:07:00,-999.0,-99.9,30.25,South,184,0.0,-999.0,-999,-99.99,,,0.00,0,weatherlink.com 1.10,2013-09-20 06:07:00,
2013-09-20 02:22:00,-999.0,-99.9,30.24,South,184,0.0,-999.0,-999,-99.99,,,0.00,0,weatherlink.com 1.10,2013-09-20 06:22:00,
2013-09-20 02:37:00,-999.0,-99.9,30.25,South,184,0.0,-999.0,-999,-99.99,,,0.00,0,weatherlink.com 1.10,2013-09-20 06:37:00,
2013-09-20 02:52:00,-999.0,-99.9,30.24,South,184,0.0,-999.0,-999,-99.99,,,0.00,0,weatherlink.com 1.10,2013-09-20 06:52:00,
2013-09-20 03:07:00,-999.0,-99.9,30.24,South,184,0.0,-999.0,-999,-99.99,,,0.00,0,weatherlink.com 1.10,2013-09-20 07:07:00,
2013-09-20 03:22:00,-999.0,-99.9,30.24,South,184,0.0,-999.0,-999,-99.99,,,0.00,0,weatherlink.com 1.10,2013-09-20 07:22:00,
2013-09-20 03:37:00,-999.0,-99.9,30.23,South,184,0.0,-999.0,-999,-99.99,,,0.00,0,weatherlink.com 1.10,2013-09-20 07:37:00,
2013-09-20 03:52:00,-999.0,-99.9,30.24,South,184,0.0,-999.0,-999,-99.99,,,0.00,0,weatherlink.com 1.10,2013-09-20 07:52:00,
2013-09-20 04:07:00,-999.0,-99.9,30.24,South,184,0.0,-999.0,-999,-99.99,,,0.00,0,weatherlink.com 1.10,2013-09-20 08:07:00,
2013-09-20 04:22:00,-90.0,-99.9,30.24,South,184,0.0,-999.0,-999,-99.99,,,0.00,0,weatherlink.com 1.10,2013-09-20 08:22:00,
2013-09-20 04:37:00,-90.0,-99.9,30.23,South,184,0.0,-999.0,-999,-99.99,,,0.00,0,weatherlink.com 1.10,2013-09-20 08:37:00,
2013-09-20 04:52:00,-90.0,-99.9,30.23,South,184,0.0,-999.0,-999,-99.99,,,0.00,0,weatherlink.com 1.10,2013-09-20 08:52:00,
2013-09-20 05:07:00,-90.0,-99.9,30.23,South,184,0.0,-999.0,-999,-99.99,,,0.00,0,weatherlink.com 1.10,2013-09-20 09:07:00,
2013-09-20 05:22:00,-90.0,-99.9,30.23,South,184,0.0,-999.0,-999,-99.99,,,0.00,0,weatherlink.com 1.10,2013-09-20 09:22:00,
2013-09-20 05:37:00,-90.0,-99.9,30.22,South,184,0.0,-999.0,-999,-99.99,,,0.00,0,weatherlink.com 1.10,2013-09-20 09:37:00,
2013-09-20 05:52:00,-90.0,-99.9,30.23,South,184,0.0,-999.0,-999,-99.99,,,0.00,0,weatherlink.com 1.10,2013-09-20 09:52:00,
2013-09-20 06:07:00,-90.0,-99.9,30.23,South,184,0.0,-999.0,-999,-99.99,,,0.00,0,weatherlink.com 1.10,2013-09-20 10:07:00,
2013-09-20 06:22:00,-90.0,-99.9,30.22,South,184,0.0,-999.0,-999,-99.99,,,0.00,0,weatherlink.com 1.10,2013-09-20 10:22:00,
2013-09-20 06:37:00,-90.0,-99.9,30.23,South,184,0.0,-999.0,-999,-99.99,,,0.00,0,weatherlink.com 1.10,2013-09-20 10:37:00,
2013-09-20 06:52:00,-90.0,-99.9,30.23,South,184,0.0,-999.0,-999,-99.99,,,0.00,0,weatherlink.com 1.10,2013-09-20 10:52:00,
2013-09-20 07:07:00,-90.0,-99.9,30.23,South,184,0.0,-999.0,-999,-99.99,,,0.00,9,weatherlink.com 1.10,2013-09-20 11:07:00,
2013-09-20 07:22:00,-90.0,-99.9,30.23,South,184,0.0,-999.0,-999,-99.99,,,0.00,23,weatherlink.com 1.10,2013-09-20 11:22:00,
2013-09-20 07:37:00,-90.0,-99.9,30.24,South,184,0.0,-999.0,-999,-99.99,,,0.00,44,weatherlink.com 1.10,2013-09-20 11:37:00,
2013-09-20 07:52:00,-90.0,-99.9,30.23,South,184,0.0,-999.0,-999,-99.99,,,0.00,76,weatherlink.com 1.10,2013-09-20 11:52:00,
2013-09-20 08:07:00,-90.0,-99.9,30.23,South,184,0.0,-999.0,-999,-99.99,,,0.00,111,weatherlink.com 1.10,2013-09-20 12:07:00,
2013-09-20 08:22:00,-90.0,-99.9,30.22,South,184,0.0,-999.0,-999,-99.99,,,0.00,151,weatherlink.com 1.10,2013-09-20 12:22:00,
2013-09-20 08:37:00,-90.0,-99.9,30.21,South,184,0.0,-999.0,-999,-99.99,,,0.00,199,weatherlink.com 1.10,2013-09-20 12:37:00,
2013-09-20 08:52:00,-90.0,-99.9,30.21,South,184,0.0,-999.0,-999,-99.99,,,0.00,251,weatherlink.com 1.10,2013-09-20 12:52:00,
2013-09-20 09:07:00,-90.0,-99.9,30.22,South,184,0.0,-999.0,-999,-99.99,,,0.00,297,weatherlink.com 1.10,2013-09-20 13:07:00,
2013-09-20 09:22:00,-90.0,-99.9,30.22,South,186,0.0,-999.0,-999,-99.99,,,0.00,334,weatherlink.com 1.10,2013-09-20 13:22:00,
2013-09-20 09:37:00,34.4,-30.0,30.21,SSE,165,0.0,-999.0,5,-99.99,,,0.00,371,weatherlink.com 1.10,2013-09-20 13:37:00,
2013-09-20 09:52:00,34.4,-30.0,30.20,South,191,5.0,-999.0,5,-99.99,,,0.00,417,weatherlink.com 1.10,2013-09-20 13:52:00,
2013-09-20 10:07:00,34.4,-30.0,30.20,WNW,291,3.0,-999.0,5,-99.99,,,0.00,455,weatherlink.com 1.10,2013-09-20 14:07:00,
2013-09-20 10:22:00,34.4,-30.0,30.18,SW,228,2.0,-999.0,5,-99.99,,,0.00,485,weatherlink.com 1.10,2013-09-20 14:22:00,
2013-09-20 10:37:00,34.4,-30.0,30.17,NW,319,2.0,-999.0,5,-99.99,,,0.00,524,weatherlink.com 1.10,2013-09-20 14:37:00,
2013-09-20 10:52:00,34.4,-30.0,30.16,WNW,288,3.0,-999.0,5,-99.99,,,0.00,554,weatherlink.com 1.10,2013-09-20 14:52:00,
2013-09-20 11:07:00,34.4,-30.0,30.15,SSE,160,3.0,-999.0,5,-99.99,,,0.00,575,weatherlink.com 1.10,2013-09-20 15:07:00,
2013-09-20 11:22:00,34.4,-30.0,30.13,SSW,194,3.0,-999.0,5,-99.99,,,0.00,606,weatherlink.com 1.10,2013-09-20 15:22:00,
2013-09-20 11:37:00,-90.0,-99.9,30.12,SE,135,7.0,-999.0,-999,-99.99,,,0.00,629,weatherlink.com 1.10,2013-09-20 15:37:00,
2013-09-20 11:52:00,-90.0,-99.9,30.11,SSE,167,4.0,-999.0,-999,-99.99,,,0.00,638,weatherlink.com 1.10,2013-09-20 15:52:00,
2013-09-20 12:07:00,-90.0,-99.9,30.11,South,180,6.0,-999.0,-999,-99.99,,,0.00,661,weatherlink.com 1.10,2013-09-20 16:07:00,
2013-09-20 12:22:00,-90.0,-99.9,30.11,South,176,3.0,-999.0,-999,-99.99,,,0.00,682,weatherlink.com 1.10,2013-09-20 16:22:00,
2013-09-20 12:37:00,-90.0,-99.9,30.10,SSW,198,2.0,-999.0,-999,-99.99,,,0.00,687,weatherlink.com 1.10,2013-09-20 16:37:00,
2013-09-20 12:52:00,-90.0,-99.9,30.09,South,180,3.0,-999.0,-999,-99.99,,,0.00,693,weatherlink.com 1.10,2013-09-20 16:52:00,
2013-09-20 13:07:00,-90.0,-99.9,30.09,SE,139,0.0,-999.0,-999,-99.99,,,0.00,698,weatherlink.com 1.10,2013-09-20 17:07:00,
2013-09-20 13:22:00,-90.0,-99.9,30.08,South,177,5.0,-999.0,-999,-99.99,,,0.00,694,weatherlink.com 1.10,2013-09-20 17:22:00,
2013-09-20 13:37:00,-999.0,-99.9,30.08,South,173,0.0,-999.0,-999,-99.99,,,0.00,689,weatherlink.com 1.10,2013-09-20 17:37:00,
2013-09-20 13:52:00,-90.0,-99.9,30.07,SE,140,1.0,-999.0,-999,-99.99,,,0.00,679,weatherlink.com 1.10,2013-09-20 17:52:00,
2013-09-20 14:07:00,-999.0,-99.9,30.06,SE,144,0.0,-999.0,-999,-99.99,,,0.00,671,weatherlink.com 1.10,2013-09-20 18:07:00,
2013-09-20 14:22:00,-999.0,-99.9,30.05,WSW,254,5.0,-999.0,-999,-99.99,,,0.00,657,weatherlink.com 1.10,2013-09-20 18:22:00,
2013-09-20 14:37:00,-999.0,-99.9,30.05,East,100,0.0,-999.0,-999,-99.99,,,0.00,636,weatherlink.com 1.10,2013-09-20 18:37:00,
2013-09-20 14:52:00,-999.0,-99.9,30.04,SSE,160,0.0,-999.0,-999,-99.99,,,0.00,603,weatherlink.com 1.10,2013-09-20 18:52:00,
2013-09-20 15:07:00,-999.0,-99.9,30.03,SE,146,6.0,-999.0,-999,-99.99,,,0.00,592,weatherlink.com 1.10,2013-09-20 19:07:00,
2013-09-20 15:22:00,-999.0,-99.9,30.02,SE,145,1.0,-999.0,-999,-99.99,,,0.00,555,weatherlink.com 1.10,2013-09-20 19:22:00,
2013-09-20 15:37:00,-999.0,-99.9,30.02,SSW,209,4.0,-999.0,-999,-99.99,,,0.00,527,weatherlink.com 1.10,2013-09-20 19:37:00,
2013-09-20 15:52:00,-999.0,-99.9,30.02,South,170,4.0,-999.0,-999,-99.99,,,0.00,476,weatherlink.com 1.10,2013-09-20 19:52:00,
2013-09-20 16:07:00,-999.0,-99.9,30.01,SSW,212,3.0,-999.0,-999,-99.99,,,0.00,455,weatherlink.com 1.10,2013-09-20 20:07:00,
2013-09-20 16:22:00,-999.0,-99.9,30.01,South,178,0.0,-999.0,-999,-99.99,,,0.00,429,weatherlink.com 1.10,2013-09-20 20:22:00,
2013-09-20 16:37:00,-999.0,-99.9,30.01,West,264,6.0,-999.0,-999,-99.99,,,0.00,371,weatherlink.com 1.10,2013-09-20 20:37:00,
2013-09-20 16:52:00,-999.0,-99.9,30.00,South,187,4.0,-999.0,-999,-99.99,,,0.00,272,weatherlink.com 1.10,2013-09-20 20:52:00,
2013-09-20 17:07:00,-999.0,-99.9,30.00,SE,134,3.0,-999.0,-999,-99.99,,,0.00,253,weatherlink.com 1.10,2013-09-20 21:07:00,
2013-09-20 17:22:00,-999.0,-99.9,30.00,SE,138,3.0,-999.0,-999,-99.99,,,0.00,183,weatherlink.com 1.10,2013-09-20 21:22:00,
2013-09-20 17:37:00,-999.0,-99.9,30.00,SSE,157,0.0,-999.0,-999,-99.99,,,0.00,142,weatherlink.com 1.10,2013-09-20 21:37:00,
2013-09-20 17:52:00,-999.0,-99.9,30.00,SE,140,2.0,-999.0,-999,-99.99,,,0.00,105,weatherlink.com 1.10,2013-09-20 21:52:00,
2013-09-20 18:07:00,-999.0,-99.9,30.00,SSE,159,5.0,-999.0,-999,-99.99,,,0.00,54,weatherlink.com 1.10,2013-09-20 22:07:00,
2013-09-20 18:22:00,-999.0,-99.9,29.99,ESE,113,0.0,-999.0,-999,-99.99,,,0.00,46,weatherlink.com 1.10,2013-09-20 22:22:00,
2013-09-20 18:37:00,-999.0,-99.9,29.99,SE,137,2.0,-999.0,-999,-99.99,,,0.00,26,weatherlink.com 1.10,2013-09-20 22:37:00,
2013-09-20 18:52:00,-999.0,-99.9,29.98,East,98,2.0,-999.0,-999,-99.99,,,0.00,14,weatherlink.com 1.10,2013-09-20 22:52:00,
2013-09-20 19:07:00,-999.0,-99.9,29.98,SE,140,0.0,-999.0,-999,-99.99,,,0.00,0,weatherlink.com 1.10,2013-09-20 23:07:00,
2013-09-20 19:22:00,-999.0,-99.9,29.98,ESE,109,1.0,-999.0,-999,-99.99,,,0.00,0,weatherlink.com 1.10,2013-09-20 23:22:00,
2013-09-20 19:37:00,-999.0,-99.9,29.98,East,80,0.0,-999.0,-999,-99.99,,,0.00,0,weatherlink.com 1.10,2013-09-20 23:37:00,
2013-09-20 19:52:00,-999.0,-99.9,29.99,East,80,0.0,-999.0,-999,-99.99,,,0.00,0,weatherlink.com 1.10,2013-09-20 23:52:00,
2013-09-20 20:07:00,-999.0,-99.9,29.99,East,80,0.0,-999.0,-999,-99.99,,,0.00,0,weatherlink.com 1.10,2013-09-21 00:07:00,
2013-09-20 20:22:00,-999.0,-99.9,29.98,ESE,102,0.0,-999.0,-999,-99.99,,,0.00,0,weatherlink.com 1.10,2013-09-21 00:22:00,
2013-09-20 20:37:00,-999.0,-99.9,29.99,ESE,112,0.0,-999.0,-999,-99.99,,,0.00,0,weatherlink.com 1.10,2013-09-21 00:37:00,
2013-09-20 20:52:00,-999.0,-99.9,29.98,ESE,119,0.0,-999.0,-999,-99.99,,,0.00,0,weatherlink.com 1.10,2013-09-21 00:52:00,
2013-09-20 21:07:00,-999.0,-99.9,29.98,ESE,119,0.0,-999.0,-999,-99.99,,,0.00,0,weatherlink.com 1.10,2013-09-21 01:07:00,
2013-09-20 21:22:00,-999.0,-99.9,29.98,ESE,111,0.0,-999.0,-999,-99.99,,,0.00,0,weatherlink.com 1.10,2013-09-21 01:22:00,
2013-09-20 21:37:00,-999.0,-99.9,29.98,ESE,114,0.0,-999.0,-999,-99.99,,,0.00,0,weatherlink.com 1.10,2013-09-21 01:37:00,
2013-09-20 21:52:00,-999.0,-99.9,29.98,East,81,0.0,-999.0,-999,-99.99,,,0.00,0,weatherlink.com 1.10,2013-09-21 01:52:00,
2013-09-20 22:07:00,-999.0,-99.9,29.98,ESE,121,0.0,-999.0,-999,-99.99,,,0.00,0,weatherlink.com 1.10,2013-09-21 02:07:00,
2013-09-20 22:22:00,-999.0,-99.9,29.97,SSE,152,1.0,-999.0,-999,-99.99,,,0.00,0,weatherlink.com 1.10,2013-09-21 02:22:00,
2013-09-20 22:37:00,-999.0,-99.9,29.96,SE,136,0.0,-999.0,-999,-99.99,,,0.00,0,weatherlink.com 1.10,2013-09-21 02:37:00,
2013-09-20 22:52:00,-999.0,-99.9,29.97,SE,134,1.0,-999.0,-999,-99.99,,,0.00,0,weatherlink.com 1.10,2013-09-21 02:52:00,
2013-09-20 23:07:00,-999.0,-99.9,29.96,SSE,161,0.0,-999.0,-999,-99.99,,,0.00,0,weatherlink.com 1.10,2013-09-21 03:07:00,
2013-09-20 23:22:00,-999.0,-99.9,29.96,SW,229,0.0,-999.0,-999,-99.99,,,0.00,0,weatherlink.com 1.10,2013-09-21 03:22:00,
2013-09-20 23:37:00,-999.0,-99.9,29.96,WSW,246,1.0,-999.0,-999,-99.99,,,0.00,0,weatherlink.com 1.10,2013-09-21 03:37:00,
2013-09-20 23:52:00,-999.0,-99.9,29.95,WSW,248,0.0,-999.0,-999,-99.99,,,0.00,0,weatherlink.com 1.10,2013-09-21 03:52:00,